Total_Precipitation_Accumulation
0.94 1.74 1.66 2.04 2.19 4.34 6.75 6.51 10.92 4.23 9.23 5.83 5.76 6.84 7.44 8.40 6.03 6.24 6.04 4.87 6.12 5.36 5.14 3.32 2.37 2.05 3.86 2.03 0.96 0.79 0.75 1.97 0.67 3.39 3.58 0.91 0.65 0.75 0.99 0.63 0.69 0.70 0.88 0.92 1.36 1.70 2.21 1.59 1.63 1.98 2.41 2.52 1.50 1.57 1.26 1.27 1.47 1.88 2.39 2.04 1.99 2.28 2.20 1.76 2.25 1.74 1.22 1.50 1.32 1.09 1.44 1.40 1.68 1.82 1.73 1.60 1.63 1.84 2.02 1.74 2.37 2.43 2.21 1.80 1.96 2.07 2.00 1.88 1.98 2.04 1.78 1.75 2.02 1.69 1.50 1.71 1.67
1.26 1.59 2.14 1.94 4.19 7.70 7.34 5.39 7.19 5.88 5.17 5.93 5.84 6.22 5.41 7.10 8.13 5.38 4.74 6.36 4.44 5.38 3.88 2.44 1.67 0.85 1.09 1.03 1.05 0.74 0.50 0.57 0.31 0.47 0.52 0.52 0.74 0.71 0.55 0.49 0.49 0.67 0.62 0.74 1.25 1.33 1.92 2.09 1.64 2.51 2.13 2.28 1.74 1.25 1.20 1.68 1.84 1.65 1.79 2.05 1.74 2.13 1.86 1.64 2.03 1.49 1.73 1.43 1.37 1.45 1.80 1.61 1.89 2.31 2.42 2.13 2.27 2.36 1.97 2.21 2.28 2.45 2.54 2.03 2.55 2.39 2.37 1.74 1.89 1.55 1.42 1.78 1.65 2.06 1.96 1.89 1.40
1.51 0.95 1.52 2.29 3.44 4.93 5.42 4.48 8.81 5.73 6.61 5.14 5.96 8.39 5.92 7.29 5.39 4.89 5.63 5.51 4.39 4.04 2.88 2.73 1.51 1.58 1.25 1.25 1.44 1.52 2.08 0.96 0.28 0.23 0.66 0.82 0.97 1.64 0.72 0.57 0.41 0.56 0.82 0.77 0.87 1.63 1.93 2.49 1.39 1.51 1.78 1.80 1.75 1.15 1.06 1.18 1.25 1.79 1.68 1.67 1.90 1.59 1.82 1.63 1.43 1.71 1.61 1.93 1.25 1.30 1.77 1.78 1.93 2.17 2.48 2.38 2.11 2.20 1.85 2.19 2.37 2.41 2.56 2.41 2.56 2.44 2.35 1.96 2.12 2.24 1.64 1.78 1.88 1.80 1.59 1.54 1.47
1.01 1.17 2.20 3.00 5.65 4.42 6.51 5.94 6.58 7.44 5.96 5.23 5.87 5.36 7.49 4.32 4.05 5.22 4.15 3.34 3.35 3.16 2.29 2.65 2.55 1.67 2.54 1.39 1.69 1.01 1.38 2.20 0.77 0.50 0.92 0.89 0.48 0.47 0.58 0.46 0.56 0.88 0.98 0.64 1.68 1.32 1.48 1.01 0.74 1.36 1.55 1.65 1.44 1.06 0.94 1.23 1.43 1.64 1.92 1.78 2.24 1.79 1.97 1.53 1.36 1.97 1.92 1.55 1.39 1.52 1.80 1.81 2.29 2.03 2.07 2.12 2.14 1.89 2.17 1.77 2.21 2.76 2.90 2.41 2.50 2.63 2.27 2.01 2.67 2.34 1.86 1.52 1.42 1.59 1.33 1.32 1.57
0.66 0.96 1.77 2.65 4.44 7.95 6.24 5.97 6.23 4.82 6.16 6.20 6.15 5.13 5.10 4.73 4.70 4.56 3.23 3.64 2.94 3.28 2.29 2.07 1.72 1.87 3.01 2.17 1.89 3.14 2.08 1.04 1.08 0.45 0.28 0.43 0.15 0.32 0.36 0.49 0.58 0.51 0.70 1.08 0.91 1.05 1.14 0.79 0.83 0.96 1.13 1.22 1.16 0.92 0.74 0.89 1.08 1.20 1.43 1.69 2.11 2.53 1.78 1.70 1.39 1.61 2.49 2.46 2.02 1.55 2.00 1.69 2.23 2.12 2.06 2.13 2.26 2.00 2.40 2.48 2.74 2.73 2.73 2.95 2.70 2.81 2.46 2.38 2.58 2.39 1.93 1.63 1.51 1.65 1.69 1.35 1.57
0.62 1.01 1.30 2.51 7.57 3.35 4.93 5.77 5.34 5.31 4.51 6.12 5.28 5.90 4.69 5.19 5.07 3.32 2.36 2.49 2.23 2.52 2.50 2.06 2.42 1.72 2.17 1.54 1.68 1.43 1.24 3.05 0.60 0.40 0.18 0.37 0.25 0.27 0.28 0.29 0.41 0.63 0.89 0.89 1.08 1.00 1.35 0.68 0.69 1.01 0.87 1.24 1.35 1.18 0.69 0.93 0.78 0.91 1.48 1.99 2.27 2.49 1.58 1.98 2.30 2.56 2.81 2.47 2.38 2.37 2.08 2.05 2.01 2.16 2.37 1.86 2.07 2.20 2.43 2.51 2.53 2.85 2.86 2.96 2.86 2.54 3.00 2.90 2.09 1.84 1.77 1.65 1.54 1.53 1.14 1.36 1.42
1.12 1.54 2.92 2.93 3.43 3.87 7.37 5.94 4.53 5.13 4.34 5.98 4.23 3.79 3.34 4.97 4.64 3.02 1.49 1.81 1.10 1.66 1.54 1.42 0.81 1.10 1.66 1.33 0.79 1.08 0.96 0.68 1.42 0.43 0.50 0.19 0.18 0.20 0.25 0.34 0.37 0.67 0.72 1.07 1.10 0.89 0.94 0.56 0.73 0.90 1.28 1.64 1.13 0.84 1.07 0.98 1.19 1.27 1.37 2.13 2.46 2.53 2.48 2.16 2.00 2.51 2.96 2.78 2.45 3.50 2.44 2.56 2.49 2.34 2.76 2.09 2.00 2.08 1.98 2.37 2.64 2.74 2.72 2.52 2.86 2.36 2.66 2.43 2.24 1.85 1.62 1.96 1.62 1.39 1.38 1.41 1.65
0.31 2.59 2.83 4.01 5.51 5.21 6.80 3.87 5.05 4.82 4.92 5.45 3.64 2.97 3.63 4.25 3.31 3.77 2.29 3.71 1.30 2.10 1.18 1.26 1.16 2.37 2.98 1.77 2.61 1.39 0.83 1.16 0.79 0.36 0.63 0.41 0.15 0.21 0.25 0.30 0.49 0.56 0.67 0.60 0.84 0.88 0.76 0.62 0.66 0.71 0.80 1.22 1.15 1.23 1.29 1.37 1.48 1.58 2.12 2.61 2.24 2.31 2.64 2.27 2.39 2.54 3.08 2.79 2.98 3.27 2.79 3.15 3.40 2.94 3.38 2.94 2.53 2.54 2.48 2.13 2.88 2.64 2.62 2.42 2.25 1.94 1.81 2.62 2.34 2.36 1.88 1.52 1.71 1.57 1.13 1.28 1.26
2.11 1.36 2.35 3.37 6.27 4.19 4.38 4.84 4.61 4.94 4.82 5.41 4.18 3.18 3.32 3.39 3.29 3.37 2.92 2.34 1.53 1.72 1.56 1.55 1.77 3.21 2.56 2.11 1.69 1.74 1.40 1.28 0.84 0.71 0.31 0.52 0.26 0.22 0.26 0.36 0.33 0.74 0.62 0.71 0.72 0.88 1.17 0.86 0.66 0.88 1.13 1.30 1.50 1.28 1.55 1.68 1.54 1.87 2.04 2.02 2.08 2.45 1.99 2.20 2.59 2.40 2.74 2.75 3.10 3.80 3.81 3.20 3.91 2.85 3.44 3.01 3.17 2.79 2.52 2.38 3.03 2.49 2.51 2.33 2.01 2.20 1.93 2.44 2.30 2.33 2.04 2.00 1.73 1.50 1.43 1.15 1.18
1.85 1.99 5.64 3.96 3.72 5.31 4.38 3.19 4.44 5.78 4.64 4.74 4.25 3.74 3.19 2.94 3.27 2.66 2.57 2.20 2.85 2.57 2.56 2.04 1.64 3.19 1.45 1.83 1.59 1.83 2.23 1.75 0.94 0.74 0.43 0.59 0.90 0.74 0.34 0.33 0.27 0.53 0.71 0.89 0.89 0.99 0.89 1.20 0.94 0.94 1.38 1.47 1.57 1.52 1.51 1.72 2.13 1.79 1.94 1.70 1.93 1.91 2.13 2.12 2.37 2.67 2.74 3.67 4.19 3.89 4.08 3.20 3.11 3.47 3.11 3.51 2.71 2.57 2.67 2.59 2.83 2.57 2.11 2.22 1.83 1.78 1.92 2.20 2.18 2.10 1.96 1.89 1.59 1.26 1.54 1.46 1.23
3.62 1.89 1.47 4.28 4.54 3.65 4.53 4.06 4.59 4.86 4.25 4.10 3.84 2.73 3.36 2.90 2.51 2.89 2.98 2.66 1.78 2.74 1.49 1.74 1.57 1.83 1.83 1.41 2.92 1.83 2.23 1.61 1.44 1.11 1.29 0.79 0.56 0.58 0.62 0.22 0.30 0.37 0.46 0.64 0.62 0.68 0.89 1.36 1.25 1.28 1.37 1.72 1.76 1.52 1.28 1.58 1.48 1.26 1.60 1.79 2.27 1.95 2.19 2.82 2.69 2.65 2.95 3.66 4.24 3.95 3.80 4.11 4.10 3.37 3.86 3.80 3.69 2.67 2.93 3.25 3.20 2.78 2.49 2.46 1.76 1.61 1.65 1.60 2.04 2.23 1.57 1.39 1.88 1.44 1.54 1.22 1.10
3.14 3.25 4.43 5.38 4.04 4.42 4.75 4.61 5.54 5.76 4.08 3.94 3.74 2.85 2.39 2.39 3.14 2.76 2.81 2.85 2.32 2.43 1.92 1.40 1.78 1.90 1.70 1.41 1.54 2.74 1.85 2.06 1.32 1.11 0.84 0.75 0.47 0.70 0.87 0.64 0.52 0.48 0.34 0.46 0.62 0.97 0.94 1.59 1.66 1.91 1.67 1.74 2.28 1.84 1.58 1.60 1.58 1.49 1.82 2.53 2.38 2.37 2.53 3.00 3.00 2.63 3.05 3.80 4.08 3.87 3.95 3.97 3.68 4.33 3.91 3.93 3.95 3.42 3.89 3.14 3.37 3.54 2.77 2.55 2.37 1.80 1.88 2.25 2.17 2.20 2.00 1.52 1.44 1.72 1.27 1.14 1.04
2.10 1.34 4.43 3.76 3.21 4.29 3.87 4.54 5.15 5.13 5.05 4.57 3.59 3.17 2.85 2.49 2.66 2.63 2.83 1.70 1.79 2.76 1.94 1.92 1.27 1.85 1.74 1.99 2.10 2.63 2.68 1.60 1.07 0.65 0.54 0.83 0.66 0.68 0.64 0.41 0.63 1.01 0.74 0.72 0.56 0.73 0.84 1.16 1.63 2.15 2.39 2.16 2.05 2.06 2.12 1.92 1.94 2.24 2.26 2.33 2.59 2.93 2.96 2.46 2.98 2.84 3.68 3.96 4.76 4.37 3.75 3.48 3.38 3.47 4.19 3.38 3.98 3.43 3.42 3.01 3.38 3.21 2.92 3.25 2.44 1.91 2.00 2.08 2.33 2.35 2.09 1.81 2.36 1.79 1.36 1.48 1.09
0.67 1.52 3.15 4.33 2.97 4.18 3.70 4.67 4.10 5.75 5.76 4.44 3.14 3.01 2.38 2.04 2.02 1.98 1.78 2.15 1.80 2.53 0.67 1.08 1.31 1.54 0.98 0.70 2.81 3.05 1.84 1.75 0.81 0.68 0.40 0.62 0.75 0.61 0.20 0.25 0.72 0.99 1.44 1.32 1.39 0.97 1.13 1.15 1.67 1.90 2.11 2.49 2.93 2.36 2.43 2.15 2.60 2.48 3.01 2.59 3.11 3.45 3.61 3.13 3.25 3.06 3.59 3.25 3.62 4.07 4.47 4.09 4.06 3.82 4.43 4.25 4.42 3.78 3.52 3.17 3.18 3.33 3.09 3.11 3.06 2.45 2.28 2.16 2.02 2.31 2.53 2.17 2.32 2.30 1.79 1.69 1.91
0.46 0.73 2.84 2.29 3.39 2.32 3.05 5.36 5.67 3.82 6.00 4.64 2.48 2.35 2.16 1.85 1.86 1.62 1.85 2.15 1.53 1.07 0.74 0.54 0.75 3.62 1.80 2.42 2.16 2.22 1.69 1.46 0.80 0.49 0.37 0.79 0.50 0.70 0.46 0.44 0.51 0.84 1.04 1.00 1.29 1.83 1.51 1.37 1.26 1.61 2.00 2.14 2.20 2.42 3.21 3.08 2.60 2.95 2.87 3.22 3.47 3.27 4.41 4.52 4.02 4.97 4.23 3.78 4.09 3.98 4.63 5.01 5.38 5.56 5.42 4.82 4.94 4.31 3.65 3.38 3.13 2.99 3.45 2.99 3.17 2.96 2.89 2.70 2.73 2.11 1.71 3.00 3.01 2.07 2.35 2.02 2.42
0.21 0.92 2.04 3.72 3.45 2.57 2.73 3.46 3.29 4.78 5.00 4.75 3.20 2.29 2.48 2.22 1.97 1.61 1.55 1.20 0.71 0.88 0.98 1.54 0.97 2.11 1.56 2.08 1.21 0.89 0.84 0.85 0.56 1.00 1.17 1.06 0.94 1.10 0.84 0.60 0.57 0.66 0.77 0.75 1.48 1.18 1.47 1.50 1.57 1.73 1.53 1.71 2.53 2.82 2.75 3.21 2.85 3.47 3.40 4.02 3.52 4.14 4.31 4.39 5.09 5.34 5.79 5.45 5.00 4.80 5.15 5.49 5.63 4.38 5.55 4.49 5.23 4.86 4.15 3.47 3.09 2.95 3.24 2.89 3.54 3.24 3.39 2.68 3.12 2.11 1.96 2.16 2.05 2.95 2.52 2.68 2.72
0.22 1.01 2.53 2.57 4.15 3.07 4.34 4.67 2.37 5.47 3.17 4.06 2.03 2.15 2.55 1.63 1.14 1.90 1.10 1.11 1.35 0.54 0.88 0.62 1.37 1.09 1.55 1.64 1.00 0.67 0.46 0.63 0.50 0.56 0.56 0.77 0.82 1.09 1.05 0.93 0.89 0.74 1.05 1.23 1.14 1.39 1.77 1.42 1.87 1.73 1.82 1.89 2.19 2.18 2.65 2.96 2.59 3.18 3.84 4.28 4.60 5.22 4.95 5.52 5.24 5.88 6.86 5.73 5.75 6.00 5.44 4.86 4.91 4.46 4.29 4.53 4.64 4.23 3.82 4.03 3.41 2.72 2.53 3.48 3.44 3.87 2.88 3.06 2.81 2.89 2.68 2.56 2.60 2.66 3.25 3.55 3.07
0.34 1.80 1.61 2.49 2.52 2.80 3.57 4.19 4.01 2.79 3.50 2.72 2.19 2.10 2.53 1.84 1.13 1.55 0.70 1.06 1.05 0.61 0.96 0.76 0.90 1.17 1.19 0.85 0.70 0.52 0.26 0.26 0.27 0.32 0.31 0.38 0.43 0.72 0.76 0.82 0.64 0.91 1.02 1.16 0.75 1.28 0.87 1.59 1.19 1.34 1.58 1.71 2.12 2.02 2.11 2.69 3.45 3.51 3.75 4.80 4.70 5.52 6.17 5.60 5.62 5.76 5.79 5.50 6.50 6.03 6.05 5.86 5.36 5.32 5.56 5.55 5.24 4.10 4.47 4.10 3.67 3.01 3.39 3.36 3.43 3.74 2.89 3.30 2.78 2.88 2.89 2.96 3.06 2.98 3.23 2.99 2.47
0.45 0.82 1.78 2.66 1.79 1.57 1.92 1.95 3.35 3.56 2.47 2.28 2.28 1.85 2.19 2.23 0.82 1.13 2.32 1.40 1.05 0.78 1.18 1.34 1.04 0.95 0.91 0.79 0.68 0.54 0.24 0.56 0.71 0.56 0.68 0.79 0.49 0.47 1.13 0.88 1.47 1.41 1.36 0.84 0.98 1.17 1.22 1.73 0.93 1.30 1.58 1.88 2.18 2.22 2.07 2.62 2.93 3.67 4.94 4.36 5.39 5.92 5.37 4.61 5.09 5.05 4.85 4.83 5.25 5.73 6.30 5.12 4.68 4.88 4.91 4.02 4.50 3.86 2.67 3.40 3.64 3.72 4.17 3.53 3.14 3.80 3.71 3.51 2.61 2.36 2.40 2.76 3.00 3.23 2.69 2.68 2.01
0.34 0.67 2.13 2.52 1.12 1.69 1.29 2.73 2.73 3.14 2.36 2.11 2.20 1.42 2.24 1.66 1.95 0.84 1.51 1.52 1.41 1.40 1.55 0.96 1.54 1.42 1.01 0.97 0.74 0.56 0.38 0.45 0.50 0.84 0.93 1.34 1.81 1.16 1.54 1.12 1.25 1.38 1.36 1.72 1.45 1.59 1.48 1.24 1.24 2.45 3.20 2.92 2.17 3.08 2.96 3.27 3.59 4.28 4.28 3.37 4.54 5.06 5.01 4.63 5.25 4.85 4.90 5.10 5.02 5.17 4.98 4.63 4.17 4.93 3.31 3.79 4.09 3.38 3.37 3.47 3.78 3.43 3.81 3.10 3.00 2.91 2.66 2.77 2.25 1.92 2.09 2.02 2.39 3.21 3.23 2.74 1.96
1.11 0.61 1.18 2.29 1.01 1.33 1.48 2.55 2.93 2.58 2.42 2.97 1.94 1.86 1.83 1.48 1.64 1.36 1.18 1.89 1.54 1.85 1.18 1.88 2.06 1.65 0.83 1.00 0.70 0.59 0.56 0.47 0.89 0.91 0.61 0.72 1.30 1.56 1.77 1.59 1.40 1.02 1.25 1.24 1.52 1.31 1.89 1.61 1.77 2.01 2.11 2.61 2.40 2.86 2.82 3.04 3.83 3.99 5.40 5.18 4.84 4.60 4.00 4.04 3.94 4.30 4.64 3.92 4.09 4.60 3.44 3.36 2.94 3.69 3.84 4.40 4.26 3.32 2.54 2.73 3.37 2.88 2.48 3.05 2.98 3.08 2.86 2.85 2.49 2.79 2.89 2.55 2.24 2.18 2.20 2.13 2.09
0.09 0.48 0.59 0.81 0.83 1.17 1.14 1.33 1.38 1.99 3.07 4.03 2.20 1.74 2.33 1.79 0.85 1.10 1.12 1.92 2.44 1.03 1.31 1.42 1.72 1.73 1.23 0.96 0.82 0.64 0.79 0.49 0.99 0.95 1.09 1.11 1.45 0.91 0.80 1.54 1.32 1.11 0.97 1.27 1.69 1.61 1.38 2.01 1.86 2.65 2.66 2.94 2.33 2.90 3.99 3.52 4.17 4.03 4.12 3.82 3.78 3.17 3.75 3.67 3.36 4.14 3.78 4.01 5.43 4.05 3.66 3.99 3.76 3.34 3.57 2.87 3.14 2.31 2.37 2.81 2.48 3.14 2.86 2.74 2.94 2.71 2.88 3.08 2.51 3.05 2.54 2.18 2.02 2.05 1.60 1.62 1.62
0.81 0.63 0.58 0.57 0.42 0.95 0.52 1.08 1.87 2.50 2.54 2.71 1.68 2.27 1.53 1.42 1.42 1.26 1.01 2.30 1.64 0.99 0.70 1.08 1.09 1.13 1.29 0.86 0.86 0.70 0.53 0.46 0.92 0.87 0.57 1.09 1.14 1.53 1.41 1.00 1.05 1.06 0.81 1.15 1.17 1.61 1.36 2.17 1.73 2.93 2.99 2.52 2.64 2.54 2.63 2.69 3.04 2.95 3.83 3.25 3.31 3.31 3.47 4.56 4.79 4.09 3.79 4.38 4.43 4.30 4.49 4.53 3.69 3.02 2.98 3.42 2.82 2.93 2.43 2.59 2.77 2.89 3.15 2.56 2.50 1.76 2.21 2.73 2.72 2.54 1.83 1.71 2.05 2.17 1.62 1.55 1.72
0.11 0.75 0.44 0.70 0.52 0.23 0.46 1.28 2.19 2.29 2.05 2.55 2.56 1.70 1.76 1.42 1.70 0.89 1.46 0.96 1.07 0.58 0.95 0.90 1.04 1.33 1.36 1.29 0.89 0.90 0.64 0.52 0.79 1.32 0.83 1.55 1.57 1.40 0.93 0.89 0.93 0.78 0.93 1.27 1.45 1.33 1.75 2.24 1.81 2.33 2.83 2.15 2.60 2.35 3.45 2.59 3.23 2.96 2.56 3.43 2.94 3.63 3.15 3.86 4.24 4.84 5.01 4.13 3.88 4.54 4.67 4.56 3.92 3.29 2.86 3.45 3.23 3.32 2.60 2.27 2.87 3.19 3.68 3.23 2.77 3.23 2.75 2.53 2.21 3.08 2.08 2.09 1.93 1.93 1.22 1.41 1.84
0.24 0.28 0.40 0.48 0.62 0.51 0.76 0.98 2.19 3.16 4.65 3.43 2.35 1.83 2.30 1.28 1.12 0.53 1.13 0.62 0.60 0.73 0.26 0.69 0.87 1.37 1.06 0.91 0.91 0.82 0.57 0.53 1.05 0.78 1.09 1.04 1.06 0.90 0.45 0.57 0.85 1.08 1.18 1.14 1.29 1.38 1.87 1.57 2.02 1.89 2.58 2.38 2.23 2.60 2.46 2.56 2.60 2.30 2.40 3.06 3.21 3.22 3.12 3.25 3.26 4.35 5.25 4.49 5.03 5.07 4.65 5.65 5.16 4.21 4.69 4.17 3.56 3.11 3.23 3.79 3.78 3.89 4.11 3.53 3.23 3.53 2.95 2.29 2.23 1.84 2.73 2.27 2.25 1.86 1.55 1.75 1.61
0.07 0.37 0.12 0.35 0.56 0.61 1.11 1.19 1.71 1.80 2.64 3.45 3.41 3.02 2.33 1.37 0.68 1.36 1.41 0.84 0.78 0.35 0.37 0.21 0.45 0.44 0.91 0.94 1.29 0.65 1.06 1.01 0.62 0.89 1.12 0.92 0.80 0.49 0.95 1.05 1.26 1.48 1.34 1.23 1.27 1.84 1.94 1.58 1.56 1.56 1.96 1.98 2.05 2.00 2.11 2.71 3.08 2.62 2.76 3.12 3.29 3.47 3.38 3.18 3.22 3.19 4.44 5.08 5.10 5.97 6.23 6.19 4.13 4.11 3.39 4.10 4.01 3.56 3.12 2.92 2.90 2.86 3.23 3.18 3.92 3.04 3.00 2.90 2.43 2.28 2.25 1.75 1.50 2.01 1.38 1.40 1.56
0.02 0.12 0.45 0.49 1.00 0.74 1.16 1.02 1.16 1.96 2.18 2.77 4.20 3.60 2.97 1.38 0.72 1.46 1.28 0.43 0.36 0.59 0.20 0.19 0.69 0.68 0.54 0.56 0.97 0.64 0.94 1.18 1.64 0.88 0.75 0.66 0.64 0.74 0.89 1.01 1.03 0.99 1.00 1.28 1.41 1.74 2.13 2.24 2.12 1.56 1.41 1.27 1.74 1.88 2.29 2.48 3.00 2.94 2.57 2.97 3.06 2.99 3.36 3.22 3.35 3.16 3.17 5.09 4.78 4.96 5.30 5.39 4.22 4.49 3.36 2.99 3.22 3.42 3.13 3.06 2.79 3.04 3.56 3.23 3.61 4.20 3.34 2.57 2.64 2.71 2.82 2.73 1.80 1.87 1.60 2.14 1.11
0.04 0.07 0.34 0.61 0.73 0.73 1.04 1.80 1.19 1.97 2.71 2.87 6.20 4.92 3.25 2.49 1.20 1.50 0.82 0.42 0.61 0.68 0.26 0.26 0.16 0.29 0.46 0.57 0.98 1.34 0.83 0.43 0.93 0.61 0.88 0.90 0.55 0.96 0.84 1.06 1.33 1.12 1.81 1.38 1.45 1.40 1.28 1.46 2.10 2.15 2.49 1.55 1.38 1.60 2.04 1.66 2.78 3.00 2.69 2.83 2.77 2.27 2.69 1.95 2.73 2.65 3.00 4.69 3.99 5.10 5.89 4.02 3.36 3.02 2.79 2.94 2.83 3.05 3.02 3.78 3.64 3.48 3.19 3.28 2.85 3.77 4.31 3.11 2.77 3.01 2.46 3.13 2.27 1.69 1.41 1.57 2.27
0.02 0.18 0.72 0.96 1.17 1.26 1.48 1.77 2.25 2.44 2.07 2.90 4.09 4.05 4.64 5.19 2.49 1.21 0.74 0.44 0.46 0.59 0.25 0.75 0.53 0.44 0.40 0.50 0.66 0.70 1.25 0.45 0.90 0.48 0.85 0.85 1.15 1.44 1.17 1.03 1.35 1.78 2.39 1.80 1.36 1.68 1.55 1.11 1.20 1.76 1.73 1.50 1.78 1.98 2.00 1.68 1.86 2.07 2.17 1.91 1.39 1.29 2.46 2.37 2.64 2.69 2.52 4.06 3.61 3.95 4.14 3.94 2.87 2.46 2.57 2.75 3.37 2.83 3.38 3.53 3.25 3.08 2.63 2.88 3.44 3.94 4.46 3.84 3.00 2.30 2.40 2.25 1.90 1.86 1.68 1.43 1.17
0.03 0.07 0.57 0.64 1.07 1.58 1.35 2.10 2.46 2.27 2.81 2.63 2.77 3.42 2.87 3.70 3.67 1.29 0.58 0.64 0.56 0.35 0.53 0.18 0.69 0.68 0.33 0.42 0.59 0.31 0.62 0.53 0.51 0.47 0.67 1.22 1.06 1.81 1.26 1.60 1.49 2.12 2.52 2.15 1.71 1.57 1.03 0.83 0.59 0.84 0.98 1.39 2.12 2.39 1.90 1.58 1.49 1.75 1.81 1.38 1.17 1.63 1.86 1.98 2.52 2.41 2.56 2.90 2.98 2.99 3.64 4.00 3.69 3.47 2.71 3.33 3.46 3.08 3.10 2.91 2.70 2.62 2.34 2.92 3.39 3.86 3.45 3.42 2.93 1.93 2.32 1.76 1.56 1.46 1.24 1.16 1.11
0.35 0.19 0.28 0.85 0.84 2.08 1.34 1.21 1.94 2.08 1.77 1.41 2.03 2.78 2.52 3.52 1.98 1.76 1.41 1.40 0.45 0.58 0.39 0.38 0.51 0.59 0.73 0.50 0.32 0.37 0.29 0.63 0.58 0.63 0.83 0.54 0.94 0.91 1.54 1.85 1.85 2.68 2.07 2.07 1.33 1.08 0.82 1.06 0.66 0.60 0.70 0.95 0.99 1.63 1.50 1.23 0.88 1.40 1.61 1.67 1.50 2.15 2.83 1.74 1.22 2.02 2.19 2.54 3.11 2.51 2.69 3.45 3.63 3.19 3.35 3.55 2.67 2.68 2.61 2.79 2.39 2.29 3.05 3.37 3.71 3.62 3.34 2.55 2.44 2.20 2.43 2.20 1.55 1.38 1.29 0.90 0.87
0.12 0.20 0.80 0.35 0.57 2.56 1.32 0.79 1.59 1.53 1.44 1.49 1.31 2.60 2.82 2.39 1.88 1.34 2.53 2.99 1.13 0.79 0.35 0.20 0.79 0.94 0.39 0.33 0.43 0.27 0.35 0.51 0.68 0.56 0.70 0.70 0.65 0.82 0.92 1.87 2.27 2.30 2.50 2.17 1.71 1.05 1.05 1.39 1.10 1.21 0.99 0.69 1.06 1.77 1.76 1.66 1.88 2.51 2.36 2.54 2.86 2.88 2.12 2.27 1.73 2.28 2.10 2.35 2.48 1.98 2.86 3.44 3.26 3.95 3.50 3.21 2.73 2.55 2.83 2.74 2.34 3.03 2.80 3.29 3.15 3.01 2.79 2.64 2.11 1.68 1.72 2.05 1.34 1.22 1.36 1.07 0.91
0.07 0.12 0.31 0.60 0.49 1.28 1.70 1.72 1.38 1.66 1.88 1.85 2.12 2.96 2.20 1.98 1.80 1.52 1.26 2.05 0.95 0.47 0.49 0.17 0.42 0.46 0.27 0.41 0.17 0.15 0.26 0.15 0.40 0.90 1.36 0.49 0.71 0.40 0.62 1.55 2.15 2.23 1.67 1.76 1.36 1.44 0.96 1.12 1.58 1.03 1.00 1.23 0.94 1.31 1.94 2.02 2.19 2.91 2.67 2.40 2.41 2.66 2.49 1.90 1.41 1.51 1.72 2.54 2.59 2.27 3.04 3.76 3.55 3.44 3.00 2.47 2.53 2.48 2.81 2.61 2.57 2.59 3.27 3.04 2.94 2.80 2.52 2.09 2.53 1.67 1.54 1.70 1.29 1.32 0.96 0.79 0.54
0.22 0.06 0.47 0.93 0.95 0.85 2.12 0.87 1.64 1.74 1.96 2.26 1.05 1.93 1.95 1.08 1.43 1.26 1.28 1.41 0.94 0.30 0.27 0.38 0.89 0.47 0.22 0.22 0.13 0.15 0.37 0.40 0.62 0.75 0.59 0.57 0.70 0.71 0.43 0.76 1.56 1.63 1.51 1.28 1.46 1.09 1.04 1.24 1.32 1.32 1.15 0.59 1.39 1.71 2.24 2.10 2.42 2.61 2.21 1.96 1.79 1.84 2.33 2.88 2.43 2.41 2.11 2.14 1.87 1.96 1.73 2.06 3.46 2.89 3.04 3.00 3.13 2.55 2.63 2.81 2.80 2.48 2.71 2.63 2.77 2.50 2.16 2.70 2.89 2.20 1.53 1.43 1.24 1.19 1.49 0.65 0.87
0.24 0.46 0.31 0.73 0.52 1.01 1.30 0.92 1.33 1.39 1.41 2.13 1.47 1.92 1.83 1.55 0.82 1.44 1.14 1.37 0.96 0.49 0.29 0.70 0.60 0.16 0.24 0.14 0.36 0.58 0.50 0.31 0.37 0.47 0.45 0.37 0.56 0.30 0.60 0.92 0.74 1.31 1.54 1.32 1.26 1.12 1.42 1.65 1.34 1.28 1.01 1.22 1.64 1.79 2.01 1.50 1.56 1.74 1.47 1.34 1.26 1.58 3.22 2.45 2.86 2.15 2.07 2.35 1.77 1.99 2.64 2.93 3.05 2.96 3.45 3.17 3.13 3.37 3.35 2.74 2.68 2.14 2.63 2.57 2.46 2.31 2.65 2.23 2.15 1.80 1.59 1.69 1.04 0.87 0.84 0.71 0.88
0.19 0.35 0.60 0.76 1.09 1.34 1.62 1.05 0.68 0.89 1.64 1.81 2.07 1.85 2.16 1.65 2.11 2.23 2.17 1.05 1.37 0.63 0.79 0.93 0.45 0.38 0.49 0.69 0.53 0.86 0.51 0.69 1.16 0.56 0.33 0.35 0.54 0.52 0.60 0.57 0.85 1.10 1.50 1.61 1.17 1.33 1.77 1.66 1.39 1.25 0.86 1.16 1.39 1.19 1.15 1.19 0.89 1.70 1.39 1.37 0.98 1.23 2.09 2.41 1.42 1.23 2.26 2.33 1.75 2.88 2.27 2.13 2.77 3.15 4.50 4.04 3.34 3.49 2.47 2.37 2.49 1.76 2.04 2.32 2.35 2.08 1.73 2.19 1.79 1.69 1.63 1.71 1.54 0.77 0.82 0.86 0.92
0.04 0.11 0.22 0.77 0.52 0.79 0.82 1.11 0.90 1.49 1.99 1.76 2.59 2.08 2.01 1.61 1.86 2.20 2.65 1.85 1.79 1.29 1.31 1.49 0.79 0.91 1.08 1.41 1.36 0.52 0.52 1.20 0.91 0.70 0.59 0.44 1.25 1.05 1.07 0.97 0.87 0.94 0.92 0.84 1.07 1.68 1.66 1.47 1.60 1.58 1.18 1.61 1.32 1.01 1.37 0.77 0.79 1.30 1.04 0.79 1.14 1.27 1.40 1.16 1.37 1.48 1.89 2.03 2.56 2.69 2.83 2.38 2.41 2.90 2.72 2.75 2.29 2.09 1.80 2.58 1.92 1.84 2.38 2.21 1.87 1.67 1.81 2.13 1.82 1.86 1.97 2.21 1.42 1.10 0.74 1.02 0.95
0.12 0.07 0.32 0.47 0.50 1.00 0.94 1.18 1.27 2.43 1.69 1.97 2.13 2.47 2.81 2.38 2.21 2.26 2.61 1.63 1.47 0.84 0.80 0.92 1.54 0.79 1.56 1.11 1.19 1.23 1.07 0.96 0.96 0.69 1.05 1.04 1.29 1.09 0.87 0.88 1.22 0.88 0.77 0.93 1.02 1.65 1.80 1.82 1.86 1.67 1.25 1.38 1.54 1.58 0.97 1.02 1.34 1.08 1.23 1.47 1.40 0.94 0.80 0.87 0.89 0.97 1.83 2.57 1.64 2.09 1.81 1.67 1.31 1.10 1.56 1.31 1.58 1.98 1.97 1.95 1.87 1.78 1.39 1.63 1.84 1.51 1.93 1.79 1.70 1.73 1.79 1.73 1.60 1.20 1.15 1.10 1.33
0.04 0.12 0.39 0.59 0.48 0.62 0.79 1.67 1.30 2.02 1.58 2.97 2.92 2.82 3.67 3.13 2.65 2.67 2.44 1.50 1.79 1.39 1.15 1.69 0.97 1.13 1.12 1.33 0.77 1.03 1.32 1.26 0.86 1.32 1.25 1.24 1.38 1.16 0.74 0.91 0.93 1.20 1.29 0.99 1.53 1.80 1.50 1.98 2.10 2.15 1.68 1.34 1.18 1.53 1.15 1.17 1.12 1.42 1.41 1.52 1.10 0.89 0.85 0.90 1.03 1.43 1.87 2.01 1.29 1.68 1.72 0.96 1.16 1.04 1.33 1.39 1.06 1.31 2.16 1.51 1.56 1.97 1.58 1.55 1.11 1.29 1.30 1.47 1.55 1.17 1.53 1.88 1.08 1.17 1.00 1.32 1.36
0.02 0.04 0.14 0.23 0.70 0.31 0.72 1.75 1.73 2.80 1.02 3.03 2.41 1.64 3.15 3.84 3.33 3.29 2.56 1.76 2.10 2.54 1.92 1.24 1.73 1.95 1.43 1.17 1.09 0.70 1.02 1.59 1.26 1.28 1.21 2.20 1.46 1.49 1.36 1.32 1.42 0.93 1.33 1.08 1.47 1.77 1.69 2.08 2.10 1.88 1.40 1.10 0.98 1.19 1.11 1.34 1.62 1.71 1.29 1.01 1.62 0.75 0.94 1.00 0.81 1.11 1.44 1.89 1.71 2.27 1.79 1.24 1.58 1.48 0.98 1.11 1.05 1.25 1.29 1.12 1.47 1.29 1.41 1.60 1.37 1.21 1.12 0.98 1.42 1.95 1.76 1.64 1.14 1.14 0.92 0.81 0.88
0.00 0.00 0.02 0.12 0.12 0.34 0.42 0.94 0.48 1.75 1.81 1.26 2.52 3.08 3.39 2.61 3.25 2.47 2.54 1.84 2.74 2.38 2.70 2.15 2.03 1.89 1.43 1.46 0.99 1.12 1.22 1.10 1.72 1.84 2.06 2.23 1.28 1.60 1.34 1.27 1.65 1.41 1.19 1.12 1.28 1.99 1.58 1.84 1.80 1.31 1.24 0.57 0.78 0.93 0.79 1.46 1.58 1.25 1.35 1.06 1.11 1.32 0.73 0.91 1.17 0.99 1.27 1.83 1.91 1.45 2.10 2.09 1.46 1.39 0.83 0.66 1.20 1.06 1.42 1.54 1.41 1.42 1.43 1.13 1.38 1.25 1.07 0.87 0.94 1.07 1.12 1.32 1.51 1.42 0.90 0.60 0.68
0.00 0.00 0.02 0.03 0.03 0.40 0.13 0.21 0.20 0.82 1.60 0.86 0.98 2.17 3.56 1.71 1.88 1.37 1.91 2.17 2.04 2.33 2.32 2.09 1.67 1.49 0.68 0.94 0.88 1.73 2.40 2.34 2.04 1.64 1.91 2.48 2.01 1.58 1.47 1.37 2.07 1.56 1.44 1.78 2.13 1.89 1.42 1.32 1.39 1.60 1.54 0.96 0.47 0.68 1.03 0.63 0.92 1.09 1.58 1.20 1.07 0.76 0.47 0.71 1.10 1.35 0.90 1.83 1.94 1.96 2.26 1.97 1.59 1.63 1.73 1.51 1.07 0.96 1.12 0.96 1.27 1.27 1.50 1.29 1.07 1.07 1.43 0.95 1.10 1.12 0.99 1.08 1.09 1.29 1.65 1.01 0.67
0.00 0.04 0.00 0.00 0.03 0.24 0.20 0.29 0.46 0.75 1.47 1.39 0.67 1.02 2.61 1.89 1.76 1.92 2.01 1.60 2.08 2.75 1.93 1.98 1.95 1.53 0.82 0.88 1.17 1.59 3.02 3.21 2.38 2.74 2.57 2.16 2.13 1.67 1.55 1.31 1.56 2.02 1.92 1.91 1.82 1.89 1.58 1.84 1.95 1.80 1.15 1.16 1.09 1.34 1.21 0.84 1.07 1.11 1.04 1.15 0.94 0.88 0.42 0.75 1.41 1.89 1.73 1.73 2.04 1.95 1.70 1.51 1.33 1.69 1.69 1.32 1.28 1.28 1.21 1.29 1.17 1.05 0.98 1.10 1.01 1.30 1.13 0.72 0.77 0.97 0.95 0.77 0.92 1.12 1.24 0.99 0.80
0.02 0.00 0.02 0.01 0.04 0.08 0.03 0.20 0.40 0.84 0.49 0.94 0.84 0.41 1.52 1.86 1.68 1.33 1.96 1.90 1.86 2.23 1.60 2.29 2.13 1.17 1.26 0.64 1.30 2.12 2.81 3.30 3.70 2.89 2.27 2.24 2.82 2.06 1.65 2.26 1.96 1.46 2.11 3.34 3.10 2.69 2.52 1.82 1.39 1.47 1.45 1.00 1.46 1.28 0.98 0.91 1.01 1.12 1.15 0.79 1.36 0.75 0.79 1.23 0.88 1.45 1.77 2.36 1.68 1.01 1.36 1.74 1.67 1.06 1.09 0.93 1.10 0.80 0.83 1.14 0.74 0.72 0.71 0.98 0.68 0.54 0.49 0.66 0.57 1.05 0.91 0.75 0.91 0.94 1.14 1.18 1.00
0.02 0.01 0.01 0.01 0.09 0.03 0.01 0.03 0.13 0.26 0.17 0.92 0.60 0.45 1.01 1.18 1.76 1.05 1.73 2.54 2.12 2.18 2.19 1.61 1.65 1.13 0.81 0.87 0.86 1.16 2.19 2.53 2.90 2.65 2.55 2.12 2.91 2.22 1.88 1.95 1.63 1.41 1.90 2.51 3.13 2.96 2.39 3.11 3.11 2.59 2.16 2.30 2.13 1.68 1.20 1.01 1.51 1.57 1.23 1.23 0.61 1.13 0.99 1.82 1.58 0.71 1.11 1.01 1.00 1.69 1.35 1.38 0.94 1.16 0.86 0.76 0.61 0.65 0.96 0.77 0.77 1.01 0.59 0.71 0.68 0.97 0.74 0.53 0.43 0.64 0.65 0.71 0.57 0.92 0.82 1.31 1.42
0.00 0.00 0.00 0.00 0.04 0.07 0.05 0.10 0.24 0.29 0.13 0.41 0.27 0.44 0.70 1.23 1.77 1.36 1.67 1.76 1.32 1.39 1.58 1.38 1.60 1.06 0.77 0.80 0.89 0.95 1.44 1.83 3.22 3.38 2.53 3.23 3.39 3.38 3.05 2.25 2.11 1.83 2.42 2.42 3.69 4.69 3.55 3.08 2.68 2.82 2.75 2.37 2.17 1.42 0.89 1.30 1.47 1.72 1.59 1.19 0.97 0.88 1.10 1.36 1.49 1.24 0.98 1.25 1.38 0.87 0.93 1.30 0.67 0.53 0.79 0.62 0.75 0.66 0.78 0.72 0.69 0.91 0.84 0.66 0.66 0.98 0.85 0.68 0.47 0.72 0.76 0.61 0.81 0.71 0.94 0.92 1.12
0.00 0.00 0.00 0.01 0.02 0.02 0.07 0.30 0.53 0.39 0.23 0.22 0.14 0.28 0.21 1.33 1.32 0.90 1.49 0.82 0.88 0.89 1.37 1.35 1.27 1.01 0.90 0.83 0.67 0.76 1.15 1.44 2.60 3.20 3.72 3.45 3.70 3.33 3.76 2.69 2.67 2.27 2.63 3.26 3.04 3.58 2.87 3.10 3.49 3.61 3.28 2.42 1.88 1.13 1.36 1.79 3.10 2.77 1.80 1.82 1.46 1.74 0.91 0.81 1.21 0.96 1.66 1.18 1.06 0.79 0.93 0.67 0.82 0.59 0.79 0.65 0.55 0.57 0.33 0.41 0.53 0.46 0.86 1.19 1.20 0.87 0.92 0.76 0.43 1.08 0.76 0.99 0.77 0.61 0.52 0.88 1.03
0.00 0.01 0.20 0.09 0.27 0.57 0.52 1.15 1.33 0.40 0.30 0.16 0.30 0.38 0.46 0.85 1.81 1.24 0.46 0.37 0.30 0.54 1.16 1.51 1.41 0.84 0.79 0.91 1.08 0.85 1.46 1.37 1.57 2.41 3.25 3.56 2.80 3.04 2.46 2.65 3.22 2.77 3.18 2.51 2.97 2.81 2.29 2.43 3.81 2.40 2.45 2.61 2.14 2.37 3.03 2.75 2.53 2.90 3.00 1.21 1.23 2.04 1.44 1.11 0.72 0.59 0.90 0.93 1.29 1.58 1.11 0.90 0.37 0.54 1.04 0.85 0.40 0.48 0.78 0.67 0.68 0.64 0.84 0.80 0.95 1.15 1.21 1.06 0.83 1.01 0.89 0.91 1.23 0.93 0.80 1.14 1.31
0.00 0.03 0.05 0.24 0.77 1.09 0.54 1.23 0.72 0.47 0.68 0.67 0.51 0.69 1.38 0.47 0.58 0.48 0.43 0.28 0.67 0.45 0.52 0.67 1.04 1.01 0.83 0.83 1.06 1.65 1.62 1.08 1.53 1.29 1.61 1.96 2.58 2.75 3.01 2.82 3.20 3.00 3.45 3.07 2.93 2.64 1.83 2.56 2.30 2.13 1.98 3.29 2.70 2.95 3.26 3.04 2.57 2.69 2.45 1.46 1.64 1.62 1.67 0.87 0.56 0.77 0.73 0.84 1.00 1.35 1.20 0.81 0.63 0.73 0.66 0.74 0.56 0.22 0.49 0.34 0.36 0.60 0.31 0.47 0.85 0.77 0.88 1.16 1.38 1.10 1.01 0.92 1.03 1.36 1.01 0.79 0.69
0.01 0.03 0.06 0.06 0.30 0.27 0.38 0.29 0.25 0.37 0.26 0.39 0.55 0.93 0.78 0.48 0.36 0.17 0.39 0.45 0.29 0.55 0.59 0.51 0.94 0.87 0.82 0.72 1.05 1.19 1.21 1.38 1.43 1.25 1.49 1.97 2.67 3.31 2.30 2.11 2.31 2.74 2.96 3.31 3.06 2.29 1.66 1.94 1.81 2.04 2.23 3.32 4.12 3.81 3.75 2.91 2.64 2.10 2.02 1.99 1.33 0.99 0.90 0.86 0.80 1.05 0.86 0.87 1.04 1.18 1.20 1.16 1.12 0.74 0.55 0.25 0.38 0.21 0.35 0.38 0.52 0.63 0.40 0.31 0.56 0.52 0.91 0.87 1.01 0.92 0.90 1.17 0.99 1.16 1.19 0.96 0.78
0.08 0.02 0.03 0.05 0.14 0.20 0.50 0.43 0.66 0.34 0.90 0.58 0.69 0.35 1.28 0.72 4.08 0.32 0.60 0.20 0.21 0.19 0.31 0.40 0.60 1.18 1.32 1.38 1.23 1.25 1.35 2.03 2.08 1.36 1.68 2.24 2.66 2.83 2.14 2.04 2.32 3.29 3.49 2.15 2.70 2.76 1.67 1.54 0.96 1.26 2.43 2.88 3.07 4.27 4.08 3.07 2.23 1.73 1.77 2.01 2.03 1.77 1.46 0.98 0.85 1.29 1.21 1.10 1.60 0.93 1.10 0.93 0.67 0.96 1.11 1.32 0.43 0.79 0.65 0.67 0.87 0.80 0.55 0.58 0.47 0.61 0.39 0.63 0.99 0.72 1.06 0.81 1.09 0.62 0.61 0.54 0.54
0.02 0.09 0.04 0.02 0.03 0.01 0.10 0.27 0.20 0.23 0.34 0.49 0.85 0.61 0.61 1.12 0.54 0.45 0.39 0.39 0.31 0.31 0.51 0.66 1.27 1.20 1.36 1.48 1.63 1.37 1.44 2.09 1.76 1.69 2.15 2.76 2.06 2.10 1.91 2.01 2.33 2.59 3.01 2.13 1.65 1.73 1.70 1.83 1.37 1.85 2.10 2.81 3.77 3.73 5.29 3.78 2.60 2.25 2.12 2.02 1.57 1.16 0.82 1.20 1.73 1.59 1.14 1.60 1.51 1.16 1.07 1.13 0.86 0.66 1.15 1.02 0.90 0.53 0.28 0.81 1.03 0.98 0.63 0.64 0.81 0.80 0.81 1.07 1.06 1.47 1.30 1.05 0.97 0.63 0.74 0.61 0.54
0.02 0.02 0.06 0.00 0.01 0.01 0.16 0.04 0.07 0.08 0.22 0.43 0.26 0.49 0.38 0.22 0.45 0.45 0.86 0.91 0.65 0.51 0.54 0.43 1.11 1.24 1.11 1.20 1.21 1.57 1.28 1.58 1.33 1.71 2.45 2.41 2.31 0.96 1.00 1.40 2.07 2.48 2.62 1.53 1.49 1.26 1.61 1.56 1.39 2.32 2.24 2.98 2.57 2.18 2.90 3.94 2.15 2.72 1.88 2.55 1.74 1.56 0.93 0.72 0.80 0.74 0.80 0.88 1.18 1.07 0.95 1.14 0.64 0.62 0.74 0.56 1.08 0.47 0.56 0.55 0.47 0.62 0.70 0.82 1.21 1.02 0.77 0.61 0.92 1.13 1.44 1.15 1.08 0.76 0.61 0.35 0.30
0.01 0.07 0.01 0.00 0.00 0.08 0.05 0.33 0.17 0.23 0.39 0.94 0.25 0.52 0.91 0.62 2.37 0.74 1.13 1.04 1.07 0.53 0.39 0.73 0.91 0.88 1.25 0.89 1.38 1.38 1.74 1.95 1.66 1.98 2.49 2.40 1.58 0.77 0.79 0.99 1.47 1.91 1.72 1.84 1.69 1.75 1.51 1.45 1.09 1.60 2.45 2.08 2.11 2.73 3.27 3.41 2.69 2.40 2.09 1.61 1.00 0.96 0.63 0.93 1.10 1.25 1.23 1.29 1.44 0.62 1.16 0.86 0.86 0.89 0.82 0.78 0.69 0.74 1.32 0.76 0.48 0.41 0.57 0.83 0.69 0.94 0.79 0.78 0.98 0.67 0.90 1.11 0.58 0.71 0.71 0.58 0.54
0.01 0.02 0.01 0.05 0.22 0.18 0.05 0.10 0.32 0.35 0.54 0.65 0.60 0.70 0.61 0.81 1.53 0.60 0.81 0.64 0.70 0.68 0.98 1.23 1.09 1.32 1.75 1.76 1.54 1.73 1.65 1.74 1.69 1.85 2.61 2.24 1.25 0.86 1.26 1.57 1.42 1.78 1.30 1.45 2.16 1.72 0.98 0.98 1.86 1.63 1.82 1.91 2.58 2.36 2.18 2.38 2.46 2.59 2.47 1.58 0.71 0.93 1.00 1.34 1.41 1.15 1.40 1.47 1.11 1.08 1.03 1.15 1.33 0.77 0.67 0.30 0.43 0.71 0.69 0.47 0.63 0.88 1.14 0.86 0.60 0.80 0.92 1.04 0.84 0.56 0.70 0.57 0.43 0.37 0.50 0.45 0.75
0.00 0.00 0.02 0.00 0.06 0.06 0.12 0.04 0.25 0.20 0.51 0.32 1.51 0.92 1.46 1.23 1.68 0.46 0.98 0.89 0.68 0.76 0.51 0.75 1.31 1.58 1.95 2.13 1.96 1.55 1.68 2.00 2.00 2.23 2.06 1.85 1.11 1.34 1.67 2.47 2.53 1.98 1.87 1.76 1.77 1.61 1.66 1.46 1.71 1.66 2.51 2.34 1.84 2.53 2.57 2.79 2.44 2.34 1.94 1.82 1.95 1.88 1.80 1.38 0.84 0.88 0.79 1.04 0.88 1.27 1.40 0.93 0.82 0.82 0.58 0.49 0.62 0.85 0.51 0.53 0.79 0.37 0.43 0.44 0.53 0.52 0.84 1.07 0.77 0.82 0.60 0.38 0.34 0.49 0.41 0.33 0.55
0.01 0.00 0.01 0.01 0.00 0.14 0.03 0.04 0.04 0.25 0.26 0.29 0.56 1.09 1.23 1.08 0.65 0.88 0.89 0.58 0.44 0.52 0.70 1.37 2.06 2.07 2.04 1.71 2.44 2.63 2.04 1.67 1.44 1.82 2.13 1.84 1.58 1.62 1.83 2.42 3.66 3.48 2.50 2.09 1.98 2.17 2.30 1.62 0.72 0.69 1.44 1.27 1.33 1.52 1.55 1.74 2.09 0.99 1.74 1.78 2.21 1.86 1.56 1.85 1.29 0.76 0.81 0.82 1.13 1.07 1.08 1.00 1.19 1.65 0.62 0.73 0.79 0.89 0.56 0.61 0.70 0.50 0.57 0.51 0.58 0.45 0.50 0.83 0.77 0.47 0.58 0.35 0.42 0.69 0.56 0.40 0.41
0.01 0.01 0.04 0.05 0.03 0.12 0.16 0.60 0.03 0.03 0.12 0.37 0.41 1.04 1.34 0.96 0.98 0.94 1.68 1.51 1.43 1.02 1.28 1.70 2.12 2.23 2.12 2.23 2.95 2.75 1.64 1.22 0.97 1.43 1.57 2.07 2.54 2.13 2.02 2.80 4.36 5.07 3.84 2.58 2.16 2.05 2.29 1.76 1.06 1.08 1.39 1.77 1.83 1.18 1.55 1.89 0.97 1.17 1.32 1.14 1.70 1.94 1.76 1.45 1.71 2.09 1.01 0.87 0.78 0.79 0.84 1.18 0.62 1.27 1.19 0.79 0.45 0.76 0.52 0.53 0.55 0.61 0.64 0.77 0.56 0.48 0.60 0.64 0.45 0.58 0.45 0.38 0.34 0.43 0.35 0.48 0.37